[[{"header":{"parameterUnit":"m.s-1","parameterCategory":1,"la1":30.2992,"la2":30.254,"lo1":-89.0895,"lo2":-89.0443,"dy":0.0025,"dx":0.0025,"nx":19,"ny":19,"refTime":"2026-04-05T21:00:00:Z","depth":0,"parameterNumber":2,"parameterNumberName":"U-component_of_WINDS"},"data":[0,0,0,-3.6381,-3.6386,-3.6602,-3.6603,-3.6894,-3.6897,0,0,0,0,0,0,0,0,0,0,0,-3.6325,-3.6327,-3.6381,-3.6386,-3.6602,-3.6603,-3.6894,-3.6897,0,0,0,0,0,0,0,0,0,0,0,-3.6324,-3.6327,-3.6329,-3.6387,-3.6602,-3.6603,-3.6893,-3.6725,0,0,0,0,0,0,0,0,0,0,-3.6513,-3.6468,-3.6326,-3.633,-3.6389,-3.6602,-3.6603,-3.6717,-3.6735,-3.6802,0,-3.6863,0,-3.6884,-3.6917,-3.6918,0,0,0,-3.6381,-3.6453,-3.6504,-3.633,-3.6391,-3.6602,-3.6503,-3.6727,-3.6748,-3.6827,-3.6867,-3.6877,-3.6889,-3.6919,-3.6921,-3.7322,-3.7324,0,0,-3.6369,-3.6369,-3.6489,-3.6518,-3.6484,-3.6496,-3.651,-3.674,-3.6783,-3.6868,-3.6884,-3.6894,-3.6921,-3.6923,-3.732,-3.7323,0,0,0,-3.6338,-3.6361,-3.6405,-3.6506,-3.6544,-3.6503,-3.6519,-3.6773,-3.6787,-3.6887,-3.6897,-3.6923,-3.6927,-3.7318,-3.7321,-3.7429,0,0,0,-3.6331,-3.6343,-3.6401,-3.6402,-3.654,-3.6661,-3.6547,-3.6772,-3.6797,-3.6896,-3.6923,-3.693,-3.7316,-3.732,-3.7421,-3.7481,0,0,0,-3.6308,-3.634,-3.6374,-3.6402,-3.6495,-3.6657,-3.6685,-3.6777,-3.6805,-3.6918,-3.693,-3.7314,-3.7319,-3.7414,-3.7469,-3.759,0,0,0,-3.6284,-3.6465,-3.6375,-3.6581,-3.6493,-3.6721,-3.6683,-3.6853,-3.6963,-3.6924,-3.7316,-3.7321,-3.7411,-3.7462,-3.7582,-3.7693,-3.7738,0,0,-3.6513,-3.6493,-3.6614,-3.654,-3.6784,-3.6688,-3.6948,-3.7049,-3.706,-3.7235,-3.7244,-3.7424,-3.7469,-3.7588,-3.7985,-3.8021,0,0,0,-3.6686,-3.6774,-3.6838,-3.6943,-3.7024,-3.71,-3.7161,-3.7198,-3.7346,-3.7149,-3.7497,-3.7524,-3.7594,-3.7648,-3.7678,-3.774,-3.7344,-3.7344,-3.7343,-3.7012,-3.7015,-3.7217,-3.7248,-3.7349,-3.741,-3.7494,-3.7555,-3.7529,-3.7611,-3.7665,-3.7905,-3.7968,-3.7991,-3.8055,-3.772,-3.772,-3.7721,-3.7721,-3.735,-3.7477,-3.7436,-3.7618,-3.7622,-3.7775,-3.784,-3.7816,-3.7961,-3.7865,-3.7927,-3.7826,-3.803,-3.8087,-3.7729,-3.7728,-3.7727,-3.7726,-3.7725,-3.7568,-3.7629,-3.767,-3.7823,-3.794,-3.7963,-3.8103,-3.81,-3.8098,-3.8159,-3.8217,-3.8215,-3.8216,-3.8185,-3.8186,-3.8187,-3.8188,-3.8189,-3.8189,-3.7779,-3.7822,-3.7941,-3.8041,-3.8109,-3.8197,-3.8259,-3.8325,-3.8398,-3.8385,-3.8386,-3.8354,-3.8047,-3.7973,-3.8202,-3.82,-3.8198,-3.8197,-3.8196,-3.8128,-3.8048,-3.8232,-3.83,-3.8418,-3.8536,-3.8528,-3.8664,-3.8718,-3.8788,-3.8741,-3.8514,-3.8494,-3.847,-3.8409,-3.8737,-3.8737,-3.8737,-3.8738,-3.8316,-3.8303,-3.8492,-3.86,-3.8705,-3.8717,-3.8927,-3.8976,-3.9015,-3.9049,-3.9,-3.8917,-3.8892,-3.8887,-3.8854,-3.8797,-3.9217,-3.9217,-3.9218,-3.8533,-3.8531,-3.871,-3.8746,-3.8838,-3.8918,-3.9116,-3.9243,-3.927,-3.9237,-3.9077,-3.9057,-3.8922,-3.8877,-3.8846,-3.8794,-3.869,0,0]},{"header":{"parameterUnit":"m.s-1","parameterCategory":1,"la1":30.2992,"la2":30.254,"lo1":-89.0895,"lo2":-89.0443,"dy":0.0025,"dx":0.0025,"nx":19,"ny":19,"refTime":"2026-04-05T21:00:00:Z","depth":0,"parameterNumber":3,"parameterNumberName":"V-component_of_WINDS"},"data":[0,0,0,-6.1547,-6.155,-6.1659,-6.1659,-6.1802,-6.1803,0,0,0,0,0,0,0,0,0,0,0,-6.152,-6.1522,-6.1547,-6.155,-6.1659,-6.1659,-6.1802,-6.1803,0,0,0,0,0,0,0,0,0,0,0,-6.152,-6.1521,-6.1523,-6.155,-6.1659,-6.1659,-6.1802,-6.1717,0,0,0,0,0,0,0,0,0,0,-6.161,-6.1592,-6.1521,-6.1523,-6.1551,-6.1659,-6.1659,-6.1713,-6.1723,-6.1755,0,-6.1789,0,-6.1799,-6.1814,-6.1814,0,0,0,-6.1545,-6.1584,-6.1609,-6.1523,-6.1552,-6.1659,-6.1608,-6.1718,-6.1729,-6.1768,-6.1791,-6.1796,-6.1801,-6.1815,-6.1815,-6.2028,-6.2029,0,0,-6.1539,-6.1542,-6.1602,-6.1616,-6.1603,-6.1605,-6.1612,-6.1725,-6.1749,-6.1791,-6.1799,-6.1804,-6.1816,-6.1817,-6.2027,-6.2028,0,0,0,-6.1525,-6.1538,-6.156,-6.1611,-6.163,-6.1608,-6.1616,-6.1744,-6.1751,-6.1801,-6.1805,-6.1816,-6.1818,-6.2025,-6.2027,-6.2092,0,0,0,-6.1521,-6.153,-6.1558,-6.1561,-6.1628,-6.1689,-6.1633,-6.1743,-6.1756,-6.1804,-6.1816,-6.182,-6.2024,-6.2026,-6.2087,-6.2122,0,0,0,-6.1511,-6.1529,-6.1547,-6.1561,-6.1608,-6.1687,-6.1701,-6.1746,-6.1759,-6.1814,-6.182,-6.2023,-6.2026,-6.2083,-6.2115,-6.2178,0,0,0,-6.1501,-6.1602,-6.1548,-6.1662,-6.1607,-6.1728,-6.17,-6.1788,-6.1844,-6.1817,-6.2024,-6.2027,-6.2082,-6.2111,-6.2174,-6.2233,-6.2258,0,0,-6.163,-6.1618,-6.1684,-6.1639,-6.1771,-6.171,-6.185,-6.1896,-6.1896,-6.1983,-6.1988,-6.2089,-6.2114,-6.2177,-6.2397,-6.2417,0,0,0,-6.1726,-6.1774,-6.1808,-6.1863,-6.1902,-6.1938,-6.1963,-6.1979,-6.2053,-6.1943,-6.2129,-6.2144,-6.2181,-6.2208,-6.2225,-6.2256,-6.204,-6.204,-6.204,-6.1913,-6.1911,-6.2021,-6.2031,-6.2084,-6.2108,-6.215,-6.2176,-6.2156,-6.22,-6.2226,-6.236,-6.2393,-6.2405,-6.2437,-6.2257,-6.2257,-6.2257,-6.2257,-6.2102,-6.2169,-6.2142,-6.2239,-6.2234,-6.2314,-6.234,-6.2323,-6.2395,-6.234,-6.2372,-6.2312,-6.2427,-6.2455,-6.2262,-6.2261,-6.2261,-6.226,-6.226,-6.2224,-6.2256,-6.2276,-6.2354,-6.2413,-6.2418,-6.2489,-6.2482,-6.2475,-6.2507,-6.2532,-6.2531,-6.2528,-6.2519,-6.252,-6.252,-6.2521,-6.2521,-6.2521,-6.2342,-6.2363,-6.2426,-6.2476,-6.2509,-6.2552,-6.2576,-6.2608,-6.264,-6.2629,-6.2629,-6.2604,-6.244,-6.2398,-6.2529,-6.2527,-6.2526,-6.2526,-6.2525,-6.2534,-6.249,-6.2586,-6.262,-6.2677,-6.2735,-6.2725,-6.2789,-6.2814,-6.2848,-6.2817,-6.2697,-6.2682,-6.2669,-6.2634,-6.2818,-6.2818,-6.2818,-6.2818,-6.2637,-6.2629,-6.2726,-6.278,-6.2831,-6.2832,-6.2937,-6.2956,-6.2969,-6.2983,-6.2955,-6.2909,-6.2895,-6.2889,-6.2871,-6.2838,-6.307,-6.307,-6.307,-6.2754,-6.2751,-6.2844,-6.2859,-6.2902,-6.2939,-6.3037,-6.3097,-6.3102,-6.308,-6.2994,-6.2983,-6.2908,-6.2884,-6.2861,-6.2833,-6.2773,0,0]}]]